User: anonymous   Login
Location: Stull Observatory
(42.2506°N, 77.7903°W)
Time: 01:28:24
(UTC-04:00)
Language:

Abrixas rocket - Orbit

View from above orbital plane
View from above orbital plane
View from above satellite
View from above satellite

Ground track
Ground track

The orbit data is extracted from the following two-line orbital elements,

1 25723U 99022C   14304.16407700  .00018268  00000-0  56204-3 0  7890
2 25723 048.4225 180.3096 0016887 146.2317 352.3493 15.33481814858005
Epoch (UTC): 31 October 2014 03:56:16
Eccentricity: 0.0016887
inclination: 48.4225°
perigee height: 454 km
apogee height: 477 km
right ascension of ascending node: 180.3096°
argument of perigee: 146.2317°
revolutions per day: 15.33481814
mean anomaly at epoch: 352.3493°
orbit number at epoch: 85800

The dashed part of the orbit path shows where the satellite is in the earth's shadow,  

DLR